Wind_Speed
26 25 25 27 27 23 22 10 5 33 30 31 44 45 44 37 37 31 36 35 33 34 32 35 33 34 35 36 35 32 29 27 25 27 25 24 21 17 18 18 16 18 20 21 23 25 26 27 29
27 27 26 28 27 23 22 22 24 14 27 37 37 44 45 50 48 39 39 39 36 32 35 39 39 38 37 38 38 35 35 35 32 33 31 30 28 26 27 27 27 24 24 24 25 27 28 29 31
28 29 29 29 26 26 24 32 39 29 29 34 37 41 49 51 52 48 47 43 43 39 37 37 37 40 43 44 42 43 44 40 39 38 38 37 35 34 34 34 33 33 31 30 32 31 30 32 33
29 29 30 31 27 25 24 32 40 37 28 34 34 34 40 50 54 56 55 56 52 46 43 40 39 42 42 43 44 45 43 47 46 47 45 44 44 45 44 43 41 39 38 38 37 35 35 35 36
28 30 31 30 27 25 27 34 27 29 16 18 30 36 42 39 46 57 55 59 61 57 54 52 53 52 46 45 47 45 43 47 49 49 50 48 48 49 47 46 44 45 43 45 44 43 42 40 40
25 28 31 30 29 28 31 30 32 34 17 15 25 33 37 37 41 40 45 56 59 61 63 62 60 60 62 61 57 54 56 53 53 54 52 53 52 51 47 49 51 51 48 52 51 51 51 50 50
24 27 28 30 31 31 33 32 34 33 26 34 36 34 30 33 36 36 41 46 43 50 53 55 57 59 60 62 62 63 63 61 60 57 55 57 55 59 58 59 57 59 59 57 59 60 60 59 57
23 25 27 28 30 33 34 35 36 38 33 21 25 24 26 27 26 29 31 38 45 47 50 52 53 53 52 57 57 56 56 59 60 62 65 65 62 60 61 66 67 68 68 70 70 69 67 67 64
20 21 22 23 23 22 28 32 41 39 35 38 29 30 33 34 39 42 41 40 43 45 45 48 52 54 53 54 54 54 54 54 55 56 58 62 66 65 66 67 69 69 72 73 72 72 76 73 73
11 14 18 18 19 21 26 25 28 27 31 40 36 40 44 48 47 45 45 45 46 46 47 49 51 54 54 54 55 55 57 58 58 59 60 61 62 65 65 67 69 71 71 73 73 74 75 75 78
8 9 11 13 16 18 22 24 24 20 27 35 36 40 41 40 38 36 36 40 47 46 46 46 47 49 51 53 54 56 58 59 59 60 60 64 65 66 67 67 70 71 73 75 76 78 78 78 80
8 9 11 12 13 16 17 21 22 23 24 29 30 28 31 33 32 30 31 35 39 42 42 43 45 48 48 51 54 55 55 58 61 60 62 63 66 67 68 70 71 72 72 74 76 77 79 81 84
10 11 12 14 14 15 18 21 20 24 28 25 28 31 31 31 33 31 32 34 37 40 40 43 46 48 50 51 53 57 59 60 62 65 66 68 68 71 72 73 74 75 77 77 77 79 80 82 83
13 14 14 15 17 17 18 21 21 21 26 25 31 31 33 35 34 35 36 38 40 43 44 46 50 51 54 56 58 59 61 62 64 65 67 69 70 72 73 74 76 77 78 80 81 83 84 85 87
16 17 17 17 17 19 20 22 25 25 29 29 33 35 35 37 38 38 38 40 41 42 43 45 49 51 54 55 58 59 61 62 64 64 66 68 70 72 72 75 77 78 79 81 82 84 86 88 90
19 18 18 19 21 22 26 25 27 30 33 33 34 36 35 34 36 39 39 40 41 44 43 47 52 54 56 57 58 60 63 65 64 64 66 66 67 68 71 73 73 75 78 80 81 83 85 87 88
21 21 22 23 26 25 29 30 29 26 32 34 34 34 36 36 36 41 42 44 45 49 51 52 54 58 60 58 61 61 62 65 65 65 65 64 65 69 69 70 72 76 78 81 83 84 87 88 91
26 26 27 29 29 33 32 35 33 31 31 36 39 42 42 42 41 44 47 47 48 49 55 57 59 62 61 61 60 61 63 64 63 61 62 62 66 67 69 73 75 76 79 82 85 87 89 91 91
34 33 34 34 31 29 33 39 38 36 34 37 40 43 46 47 48 47 47 47 48 51 53 55 60 59 61 63 60 61 61 62 62 62 64 67 68 70 72 75 77 80 82 83 86 89 90 92 95
37 38 40 39 39 34 34 38 41 45 44 43 43 46 50 48 49 49 47 47 49 51 52 56 57 58 61 61 61 61 62 64 63 66 69 70 71 74 78 80 82 84 85 86 87 89 89 90 91
43 43 43 44 46 43 44 43 46 49 50 51 49 49 48 54 52 50 49 50 49 53 58 58 57 59 61 62 63 63 64 64 66 69 72 74 76 79 81 83 85 87 89 90 90 88 87 86 88
48 48 43 49 51 50 50 43 45 50 51 53 49 48 51 58 58 53 52 52 48 52 57 59 60 62 62 61 63 63 65 66 69 71 73 77 80 82 84 87 90 91 91 89 86 83 81 81 80
50 49 51 52 51 49 50 47 46 50 48 48 51 51 51 56 60 55 52 50 49 52 53 54 55 59 62 63 65 65 66 69 70 73 76 78 83 86 89 91 91 90 86 82 79 78 76 75 74
53 51 51 48 45 44 53 51 49 54 54 52 59 58 58 58 60 60 57 54 54 55 55 54 57 59 61 63 66 68 68 70 73 77 80 84 88 92 94 93 89 84 80 78 75 70 65 62 61
53 48 50 49 49 48 54 55 57 55 57 61 63 64 69 63 64 63 61 57 59 60 58 59 61 61 63 66 67 68 71 74 77 81 85 89 91 91 90 87 81 80 76 67 63 61 59 57 57
53 53 53 56 55 52 53 61 63 62 61 65 72 72 66 64 61 60 56 59 60 61 62 63 64 64 66 67 69 70 73 77 81 86 89 90 90 87 80 77 75 68 65 64 62 60 57 54 54
57 57 61 59 58 55 60 63 70 68 66 66 70 73 71 69 67 63 59 58 58 61 61 62 63 63 65 67 69 71 76 80 85 87 87 89 82 74 72 67 63 62 60 57 53 47 43 43 43
54 67 65 61 60 59 62 72 70 70 70 70 69 76 70 63 59 54 53 55 57 57 58 61 61 61 63 65 69 74 79 82 83 86 84 75 71 65 61 60 56 54 49 45 41 37 34 32 29
60 67 71 69 64 64 64 69 74 73 73 73 75 73 65 60 52 53 48 56 59 57 54 54 56 61 66 70 74 77 80 83 83 77 69 67 59 58 56 50 49 43 36 31 26 22 20 22 23
68 72 70 74 72 73 69 66 69 75 76 71 62 66 62 60 47 37 49 51 52 53 51 54 60 66 71 75 76 79 82 76 69 64 61 56 54 50 44 42 39 32 23 17 14 16 18 21 20
Wind_Direction
226 228 229 233 232 229 222 209 251 247 236 232 225 225 224 221 228 217 228 225 234 238 238 241 248 257 258 264 272 265 265 267 273 272 276 278 283 276 281 284 291 289 282 283 277 277 273 263 254
225 226 228 233 228 221 221 197 187 220 226 238 233 231 232 236 236 235 232 235 234 239 243 246 250 255 260 263 269 269 270 266 267 269 272 276 278 280 280 279 279 281 281 278 286 280 274 269 267
224 226 226 230 229 220 209 211 211 217 254 264 257 249 236 239 245 241 247 253 239 239 242 249 256 261 261 264 268 271 273 270 270 274 278 276 279 277 275 277 275 278 276 275 279 282 286 282 270
224 223 227 229 226 220 209 207 217 228 251 262 261 263 252 247 244 248 250 258 259 251 250 250 255 260 262 266 268 267 269 273 272 272 276 274 279 281 278 277 278 274 275 276 278 276 277 279 281
224 226 227 228 226 225 211 210 204 221 226 296 287 268 265 262 252 249 251 258 267 264 262 263 264 265 259 265 262 261 267 264 268 268 271 269 274 277 276 276 276 275 275 277 276 275 276 274 275
230 228 231 230 224 220 211 212 212 217 234 292 245 267 262 262 264 264 263 260 264 272 273 272 268 268 273 274 273 267 267 269 273 272 275 268 269 270 267 268 271 277 273 275 274 278 278 275 274
231 231 233 234 229 219 202 213 204 205 218 251 264 266 259 261 261 263 266 267 265 272 274 274 274 274 275 275 276 280 282 280 279 279 276 276 271 270 268 267 269 270 269 268 272 275 276 274 274
227 232 233 236 239 230 206 211 210 216 238 238 240 256 265 257 257 267 271 273 274 269 273 275 277 275 273 276 277 277 275 276 276 275 276 277 277 275 268 271 274 275 273 271 271 271 269 270 271
220 228 237 242 247 253 248 231 229 235 243 240 241 253 264 266 268 274 275 273 275 278 274 273 273 272 274 274 274 274 275 275 273 271 270 271 273 271 270 270 271 271 272 272 269 269 268 268 269
215 227 233 239 243 239 247 248 249 247 247 246 245 254 262 270 276 272 273 274 269 273 277 278 277 278 275 275 276 277 277 275 274 273 272 271 270 269 268 269 269 268 269 268 268 267 266 266 266
209 220 236 236 241 247 252 248 248 242 254 258 255 257 263 269 274 278 278 278 277 270 272 274 276 276 279 281 280 279 279 277 275 275 274 273 272 271 270 269 268 268 267 267 266 265 263 263 263
218 237 247 244 242 249 247 258 259 267 264 268 261 271 277 280 278 275 275 275 276 280 278 277 277 277 277 277 278 278 277 277 277 276 276 275 275 274 272 272 270 268 265 264 265 265 264 264 262
239 239 247 256 254 250 260 264 261 261 266 274 279 281 281 282 282 281 278 277 278 278 277 278 277 276 276 275 276 277 276 276 276 277 275 273 273 274 275 274 273 273 272 271 269 267 266 265 263
256 256 258 261 266 267 264 264 269 269 274 274 280 282 283 284 284 285 283 283 284 286 286 285 283 282 282 281 279 278 277 277 277 278 279 278 278 276 275 273 272 271 270 268 267 265 265 265 265
261 263 266 271 274 279 278 281 283 278 279 279 280 281 283 285 288 288 289 289 289 290 291 291 290 289 287 285 284 283 282 280 279 279 277 279 281 282 280 278 277 276 274 272 272 272 270 268 265
260 262 266 270 273 277 281 280 281 285 283 283 284 288 291 293 295 294 293 293 293 292 292 294 293 291 290 290 290 289 289 288 286 286 285 284 283 284 282 282 283 282 281 280 279 277 276 274 272
268 268 272 278 282 283 285 285 284 284 289 292 291 290 291 290 294 297 296 296 296 297 295 294 294 295 294 296 293 294 292 291 292 290 289 288 288 287 289 288 286 284 282 280 278 275 274 273 274
275 277 280 284 287 290 287 286 284 285 286 293 296 294 292 292 291 296 297 297 295 295 295 294 292 290 294 292 295 294 293 295 295 295 292 291 288 287 284 283 282 280 279 279 278 276 273 270 268
276 280 286 287 283 287 294 294 287 284 280 282 288 292 289 291 290 289 292 294 299 298 295 294 290 295 295 296 296 294 293 293 292 292 290 289 290 290 290 289 288 287 285 284 283 283 281 279 275
282 285 286 290 288 280 280 285 289 287 281 279 283 287 289 287 289 290 294 299 303 302 297 291 295 293 291 292 291 292 293 294 295 295 295 295 295 295 294 293 292 291 291 290 289 287 285 282 278
279 280 285 287 286 285 280 282 286 285 287 287 289 288 291 288 287 291 296 296 303 300 295 293 293 293 291 291 292 293 294 297 296 295 295 296 296 296 295 295 296 297 296 293 291 288 286 283 281
276 278 283 282 285 287 287 288 290 289 293 294 296 293 290 294 295 294 296 297 295 296 296 297 298 296 293 294 292 294 296 296 295 297 298 298 298 297 298 298 299 298 297 295 293 291 289 287 286
274 278 279 281 284 287 287 281 288 287 288 292 292 294 297 297 293 295 296 298 292 290 288 290 294 297 298 297 297 296 296 295 297 297 297 299 299 300 299 300 300 300 299 298 296 292 290 287 286
275 279 277 277 282 285 283 289 291 289 291 294 296 297 294 293 297 301 303 303 297 294 294 295 297 297 296 295 295 295 295 296 298 300 302 301 302 303 303 304 303 302 300 298 296 294 291 288 286
275 276 276 278 278 280 287 292 289 293 299 300 300 298 296 299 300 301 305 301 297 296 296 299 299 300 298 296 298 298 299 301 302 303 304 305 305 306 305 305 303 301 299 296 294 292 289 287 284
276 275 276 277 280 283 289 290 291 297 297 300 300 299 298 300 299 300 299 296 299 298 300 304 306 303 300 300 301 302 302 303 305 307 308 307 307 306 306 303 301 299 298 296 294 292 289 287 288
277 276 273 276 279 285 288 289 293 300 298 297 298 298 300 302 306 302 301 301 301 301 303 302 303 302 303 305 304 305 305 306 308 309 308 308 307 306 304 302 301 299 296 295 294 294 294 290 289
271 275 276 277 280 284 288 291 296 295 295 296 292 293 296 299 303 302 298 299 297 301 305 307 305 305 305 305 307 306 307 307 309 308 309 308 307 308 308 307 304 301 301 297 295 296 297 296 297
270 271 279 281 282 281 282 289 293 294 294 296 295 294 297 298 298 300 298 298 300 299 300 302 303 304 308 310 309 310 309 309 308 309 308 310 313 314 313 311 310 311 307 303 305 308 311 313 315
273 273 276 283 285 285 285 286 291 295 297 293 284 287 285 288 291 276 296 299 298 299 301 300 303 307 308 310 310 309 310 310 310 311 312 317 321 322 321 318 322 322 325 332 339 340 333 329 327
Height
10951 10954 10955 10955 10958 10965 10969 10975 10976 10967 10974 10973 10977 10980 10980 10978 10980 10983 10979 10986 10985 10987 10987 10988 10988 10989 10990 10990 10990 10989 10989 10988 10987 10987 10986 10986 10986 10986 10986 10985 10985 10984 10984 10984 10984 10983 10983 10983 10983
10946 10949 10950 10950 10954 10961 10964 10967 10968 10966 10968 10967 10972 10974 10975 10972 10973 10977 10977 10981 10983 10983 10984 10985 10985 10985 10985 10986 10987 10985 10984 10984 10983 10982 10982 10982 10982 10982 10981 10981 10980 10980 10980 10979 10979 10979 10978 10978 10978
10942 10944 10945 10945 10949 10956 10959 10960 10955 10961 10961 10962 10966 10967 10970 10968 10969 10973 10975 10975 10978 10979 10979 10980 10980 10980 10980 10980 10980 10980 10979 10979 10978 10978 10977 10976 10976 10976 10976 10975 10975 10975 10975 10975 10974 10974 10973 10972 10971
10937 10939 10940 10940 10945 10950 10956 10953 10953 10961 10965 10958 10965 10962 10962 10964 10965 10967 10969 10968 10971 10973 10974 10975 10974 10974 10973 10973 10973 10973 10973 10972 10972 10971 10971 10971 10969 10969 10969 10969 10969 10968 10969 10968 10968 10968 10968 10967 10966
10933 10935 10935 10938 10943 10945 10946 10947 10955 10958 10962 10956 10956 10956 10958 10959 10959 10960 10963 10961 10961 10964 10967 10967 10967 10967 10968 10967 10967 10965 10965 10964 10963 10963 10963 10964 10963 10961 10961 10960 10960 10960 10960 10960 10960 10960 10961 10960 10959
10930 10931 10931 10933 10937 10940 10941 10946 10948 10952 10955 10943 10945 10948 10954 10954 10952 10955 10957 10956 10958 10957 10957 10958 10959 10960 10958 10957 10957 10958 10958 10955 10955 10955 10955 10955 10954 10954 10953 10951 10951 10952 10951 10950 10949 10949 10950 10949 10948
10926 10926 10928 10929 10930 10935 10941 10942 10942 10949 10949 10937 10935 10941 10947 10948 10946 10950 10952 10947 10953 10951 10949 10948 10947 10947 10946 10947 10948 10947 10945 10945 10943 10944 10945 10943 10943 10943 10940 10940 10940 10939 10939 10938 10939 10940 10938 10935 10936
10922 10921 10922 10922 10923 10928 10935 10936 10940 10943 10951 10938 10933 10939 10941 10943 10942 10945 10948 10943 10938 10945 10942 10939 10938 10939 10938 10938 10937 10936 10935 10933 10932 10932 10932 10929 10929 10929 10928 10928 10927 10927 10926 10926 10926 10927 10924 10924 10924
10918 10919 10920 10921 10924 10928 10929 10934 10933 10943 10942 10935 10934 10932 10935 10937 10939 10941 10941 10940 10935 10932 10936 10934 10929 10930 10930 10928 10928 10926 10925 10923 10921 10920 10919 10915 10916 10914 10914 10911 10910 10910 10909 10909 10910 10911 10907 10909 10909
10918 10918 10919 10921 10923 10923 10924 10925 10927 10933 10935 10927 10933 10929 10928 10928 10930 10935 10932 10930 10930 10931 10927 10923 10922 10917 10919 10920 10918 10915 10911 10911 10909 10907 10906 10903 10902 10900 10899 10897 10894 10894 10894 10891 10893 10892 10892 10892 10890
10917 10917 10918 10919 10920 10921 10921 10923 10924 10928 10925 10923 10926 10924 10923 10922 10924 10927 10926 10919 10916 10923 10920 10919 10914 10912 10908 10905 10905 10904 10897 10897 10897 10893 10892 10889 10889 10886 10883 10882 10880 10878 10877 10876 10875 10873 10873 10873 10872
10917 10917 10916 10917 10918 10918 10920 10918 10919 10921 10921 10918 10918 10917 10917 10915 10918 10922 10921 10917 10913 10909 10909 10908 10905 10902 10901 10898 10893 10891 10890 10885 10881 10881 10878 10876 10872 10870 10868 10866 10864 10862 10860 10858 10856 10854 10854 10854 10851
10915 10916 10916 10915 10916 10917 10916 10915 10919 10917 10915 10912 10910 10910 10910 10910 10909 10912 10912 10910 10906 10901 10902 10898 10894 10892 10889 10888 10884 10879 10876 10874 10871 10865 10865 10863 10860 10855 10852 10849 10846 10844 10841 10839 10838 10836 10835 10832 10831
10912 10913 10913 10913 10912 10912 10913 10911 10913 10913 10910 10911 10907 10907 10906 10905 10906 10904 10902 10900 10897 10892 10889 10887 10882 10881 10877 10874 10871 10869 10864 10861 10858 10856 10849 10845 10842 10839 10836 10832 10827 10825 10824 10821 10819 10817 10814 10811 10809
10908 10909 10909 10909 10908 10906 10906 10906 10904 10906 10906 10907 10903 10903 10903 10900 10896 10895 10892 10890 10887 10884 10879 10876 10870 10867 10864 10862 10857 10854 10849 10846 10843 10841 10838 10831 10825 10819 10816 10810 10805 10803 10801 10797 10794 10790 10789 10786 10784
10904 10904 10905 10905 10904 10904 10901 10901 10900 10897 10898 10898 10896 10893 10891 10891 10886 10883 10882 10879 10876 10873 10871 10865 10858 10854 10849 10846 10842 10837 10833 10826 10826 10823 10817 10815 10809 10802 10794 10791 10788 10782 10777 10774 10769 10765 10762 10759 10757
10898 10899 10899 10900 10898 10900 10896 10895 10895 10895 10888 10888 10887 10886 10884 10883 10882 10876 10875 10871 10869 10862 10857 10853 10848 10839 10834 10834 10826 10823 10817 10810 10808 10804 10800 10793 10789 10783 10779 10774 10769 10763 10758 10752 10747 10743 10739 10736 10732
10892 10893 10893 10893 10894 10890 10891 10887 10888 10890 10888 10883 10880 10877 10875 10874 10874 10871 10866 10863 10861 10858 10846 10841 10833 10829 10827 10821 10818 10810 10803 10798 10793 10787 10782 10779 10772 10769 10764 10758 10751 10745 10737 10729 10723 10718 10715 10711 10707
10884 10885 10884 10885 10886 10886 10881 10877 10877 10877 10879 10876 10873 10869 10866 10865 10862 10862 10859 10854 10848 10843 10838 10828 10820 10819 10811 10807 10802 10796 10791 10786 10780 10774 10769 10763 10756 10749 10743 10735 10728 10719 10712 10705 10698 10691 10686 10679 10673
10876 10876 10874 10875 10872 10876 10875 10872 10868 10863 10866 10867 10864 10859 10855 10854 10849 10849 10846 10842 10837 10831 10823 10813 10810 10805 10800 10795 10790 10785 10779 10771 10767 10758 10750 10744 10736 10729 10721 10714 10706 10697 10689 10680 10672 10663 10657 10648 10641
10867 10866 10866 10865 10860 10864 10864 10865 10858 10852 10850 10852 10854 10849 10841 10836 10837 10838 10836 10833 10829 10815 10805 10802 10799 10793 10786 10782 10776 10771 10765 10759 10751 10743 10735 10726 10717 10709 10699 10691 10681 10672 10663 10654 10645 10634 10626 10619 10611
10856 10855 10859 10853 10851 10851 10850 10853 10845 10841 10839 10835 10837 10835 10828 10820 10822 10827 10827 10825 10818 10805 10795 10788 10783 10777 10772 10769 10762 10757 10751 10744 10735 10728 10718 10709 10698 10688 10678 10669 10658 10647 10636 10625 10616 10608 10600 10592 10588
10845 10847 10847 10843 10843 10841 10833 10840 10840 10831 10831 10830 10822 10822 10818 10809 10804 10814 10814 10812 10803 10793 10785 10780 10774 10766 10759 10753 10747 10741 10735 10728 10721 10712 10703 10692 10680 10668 10657 10646 10634 10621 10610 10601 10592 10582 10575 10568 10564
10834 10836 10833 10834 10833 10833 10820 10825 10828 10819 10819 10819 10809 10807 10801 10797 10792 10791 10795 10793 10784 10777 10772 10768 10762 10754 10748 10741 10734 10727 10720 10712 10703 10693 10684 10672 10660 10647 10632 10618 10606 10595 10587 10578 10568 10560 10553 10548 10544
10822 10824 10820 10822 10822 10823 10815 10812 10808 10812 10808 10800 10797 10792 10781 10786 10782 10780 10778 10771 10766 10760 10757 10753 10746 10740 10733 10725 10719 10712 10704 10695 10686 10676 10665 10653 10639 10625 10610 10597 10585 10575 10565 10557 10550 10543 10537 10532 10526
10809 10808 10809 10805 10808 10810 10809 10798 10795 10800 10802 10792 10777 10773 10775 10767 10771 10772 10763 10754 10750 10743 10739 10732 10728 10724 10717 10711 10704 10696 10688 10679 10669 10657 10644 10630 10617 10604 10592 10580 10568 10557 10548 10539 10531 10525 10519 10514 10510
10791 10795 10789 10793 10796 10800 10793 10789 10779 10787 10785 10780 10768 10754 10755 10755 10756 10749 10746 10742 10738 10731 10726 10722 10718 10711 10704 10698 10690 10682 10672 10662 10652 10639 10625 10612 10598 10588 10576 10563 10552 10540 10531 10524 10516 10510 10504 10500 10497
10788 10768 10774 10782 10787 10789 10785 10771 10777 10772 10766 10762 10757 10747 10750 10749 10740 10737 10734 10732 10728 10724 10717 10710 10704 10699 10694 10686 10677 10668 10658 10648 10635 10621 10609 10595 10584 10572 10559 10546 10536 10525 10518 10510 10504 10499 10494 10489 10486
10769 10761 10756 10762 10772 10773 10771 10767 10756 10751 10750 10747 10740 10732 10735 10738 10736 10726 10722 10717 10714 10712 10710 10701 10693 10687 10680 10672 10663 10653 10642 10631 10618 10606 10593 10581 10570 10557 10544 10533 10522 10514 10505 10499 10495 10492 10488 10485 10480
10750 10746 10752 10748 10751 10748 10754 10757 10751 10741 10737 10733 10724 10723 10721 10729 10732 10725 10718 10709 10705 10701 10696 10690 10683 10675 10667 10660 10650 10640 10629 10616 10603 10591 10580 10570 10558 10546 10535 10524 10515 10506 10500 10495 10492 10490 10486 10482 10478